Location: Luna
(33.8188°N, 108.9564°W)
Time: 04:27:41
(UTC+00:00)

NOAA 18 - Visible Passes

Search period start: 29 March 2023 00:00
Search period end: 08 April 2023 00:00
Orbit: 840 x 859 km, 98.9° (Epoch: 28 March)

Date Brightness Start Highest point End Pass type
(mag) Time Alt. Az. Time Alt. Az. Time Alt. Az.
29 Mar 7.6 04:44:42 14° N 04:44:42 14° N 04:45:34 10° N visible
30 Mar 7.5 04:32:15 14° NNE 04:32:15 14° NNE 04:33:08 10° N visible
31 Mar 7.5 04:19:48 13° NNE 04:19:48 13° NNE 04:20:36 10° NNE visible
31 Mar 8.2 06:01:46 10° NNW 06:01:46 10° NNW 06:01:47 10° NNW visible
01 Apr 7.5 04:07:20 12° NNE 04:07:20 12° NNE 04:07:55 10° NNE visible
01 Apr 8.0 05:49:18 12° NNW 05:49:18 12° NNW 05:49:48 10° NNW visible
02 Apr 7.6 03:54:53 10° NNE 03:54:53 10° NNE 03:55:00 10° NNE visible
02 Apr 7.8 05:36:51 15° NNW 05:36:51 15° NNW 05:37:43 10° NNW visible
03 Apr 7.6 05:24:25 17° NNW 05:24:25 17° NNW 05:25:34 10° NNW visible
04 Apr 7.5 05:11:57 18° N 05:11:57 18° N 05:13:21 10° N visible
05 Apr 7.3 04:59:30 19° N 04:59:30 19° N 05:01:04 10° N visible
06 Apr 7.3 04:47:02 19° N 04:47:02 19° N 04:48:43 10° N visible
07 Apr 7.2 04:34:35 19° NNE 04:34:35 19° NNE 04:36:17 10° N visible
07 Apr 8.1 06:16:34 11° NW 06:16:34 11° NW 06:16:41 10° NW visible
